Terminal Aerodrome Forecast
Issued by NWS St Louis, MO

Home | Current Version | Previous Version | Text Only | Print | Product List | Glossary On
Versions: 1 2 3 4 5 6 7 8 9 10 11 12 13
000
FTUS43 KLSX 212300
TAFCOU
TAF
KCOU 212322Z 2200/2224 14010KT P6SM VCSH OVC025
     FM220400 16010KT P6SM -SHRA OVC015 WS020/21045KT
     FM221400 18012KT P6SM VCSH SCT015 OVC025
     FM221900 19012KT P6SM OVC025=

USA.gov is the U.S. government's official web portal to all federal, state and local government web resources and services.